Terminal Aerodrome Forecast
Issued by NWS Dallas/Fort Worth, TX

Home | Current Version | Previous Version | Text Only | Print | Product List | Glossary On
Versions: 1 2 3 4 5 6 7 8 9 10 11 12 13 14 15 16 17 18 19 20 21 22 23 24 25 26 27 28 29
000
FTUS44 KFWD 172100 AAB
TAFDFW
TAF AMD
KDFW 172107Z 1721/1824 11007KT 5SM SHRA VCTS OVC025CB
     FM172300 11007KT 6SM -SHRA BR OVC025
     FM180000 13008KT 5SM -SHRA BR OVC015
     FM180200 13006KT 2SM -DZ BR OVC008
     FM180600 14005KT 5SM BR OVC008
     FM181600 14005KT P6SM OVC015=

USA.gov is the U.S. government's official web portal to all federal, state and local government web resources and services.